Regional Weather Roundup
Issued by NWS

Home | Current Version | Previous Version | Graphics & Text | Print | Product List | Glossary On
Versions: 1 2 3 4 5 6 7 8 9 10 11 12 13 14 15 16 17 18 19 20 21 22 23 24 25 26 27 28 29 30 31 32 33 34 35 36 37 38 39 40 41 42 43 44 45 46 47 48 49 50
000
ASUS45 KSLC 231110
RWRUT

UTAH REGIONAL WEATHER ROUNDUP
NATIONAL WEATHER SERVICE SALT LAKE CITY UT
400 AM MST SUN NOV 23 2014

UTZ001>011-023>025-231200-

NORTHERN UTAH

CITY           SKY/WX    TMP DP  RH WIND       PRES   REMARKS
BRIGHAM CITY   CLOUDY    34  29  79 NW8       30.04R WCI  28
HILL AFB       LGT SNOW  32  32 100 NW10      30.02R FOG     WCI  24
LOGAN          CLOUDY    33  27  78 W9        30.00R WCI  25
OGDEN          CLOUDY    32  30  92 NW6       30.02R WCI  26
PROVO AIRPORT  PTCLDY    36  25  64 NW16      30.03S WCI  26
SALT LAKE CITY MOCLDY    37  24  59 W26G38    30.03R WCI  25
VERNAL         CLOUDY    31  30  96 W3        29.84F
WENDOVER       CLEAR     34  19  55 NW15G23   30.13R WCI  24
HEBER CITY     CLOUDY    32  23  69 SW9       29.94S WCI  24
WEST JORDAN    CLOUDY    34  27  75 W16G22    30.03R WCI  23

$$

UTZ012>022-026-027-231200-

SOUTHERN/CENTRAL UTAH

CITY           SKY/WX    TMP DP  RH WIND       PRES   REMARKS
BLANDING       CLOUDY    38  24  59 NW9       29.92R WCI  31
BRYCE CANYON   FLURRIES  26  19  74 NW24G37   29.97R WCI  11
CEDAR CITY     PTCLDY    33  31  92 NE12      30.05R WCI  24
DELTA          CLEAR     32  28  84 N5        30.08S WCI  27
MILFORD        CLEAR     32  27  81 N12       30.07R WCI  23
MOAB/CYNLANDS  CLEAR     37  28  70 W17       29.86S WCI  27
PRICE          CLOUDY    30  22  72 NW20G26   29.90S WCI  17
ST GEORGE      PTSUNNY   50  18  27 NW17      30.06R
KANAB          PTCLDY    43  21  42 W12G21    30.03R

$$

REGIONAL REPORTS     COLORADO/ARIZONA

CITY           SKY/WX    TMP DP  RH WIND       PRES   REMARKS
CRAIG, CO      CLOUDY    28  22  78 W5        29.83S WCI  23
GRAND JUNCTION PTCLDY    32  31  96 VRB3      29.84R
RIFLE          LGT SNOW  31  30  96 W13       29.84S FOG     WCI  21
MONTROSE       CLOUDY    35  32  88 NW3       29.85R
CORTEZ         CLOUDY    37  28  70 N8        29.83F WCI  31
PAGE, AZ       NOT AVBL
GRAND CANYON   MOCLDY    34  23  64 W3        29.99R
KINGMAN        CLEAR     49  27  42 NW7       30.02R
FLAGSTAFF      CLEAR     36  23  59 W6        29.98R WCI  31

$$

REGIONAL REPORTS    NEVADA/IDAHO/WYOMING

CITY           SKY/WX    TMP DP  RH WIND       PRES   REMARKS
LAS VEGAS, NV  PTCLDY    59  26  28 NW25G38   30.02R
ELY            CLEAR     29  27  92 NW14      30.16R WCI  18
ELKO           MOCLDY    33  20  58 NE5       30.20R WCI  29
POCATELLO, ID  CLOUDY    32  29  88 W18       30.01R WCI  20
BURLEY         FLURRIES  32  24  72 W24G39    30.03R WCI  19
EVANSTON, WY   CLOUDY    23  21  92 W7        29.91R WCI  15
ROCK SPRINGS   MOCLDY    25  19  78 W22       29.82F WCI  10

$$



USA.gov is the U.S. government's official web portal to all federal, state and local government web resources and services.